Greenville-Spartanburg International Airport (GSP)

 

Airport Diagram
Current Weather/Forecast (VFR Conditions)
METAR KGSP 202353Z 18006KT 10SM FEW050 29/21 A3002 RMK AO2 SLP151 T02940211 10317 20294 56005
TAF KGSP 202320Z 2100/2124 21006KT P6SM FEW060 SCT200 FM210200 24004KT P6SM FEW250 FM211400 24007KT P6SM FEW045 FM211700 23010G17KT P6SM SCT050 FM212300 23008KT P6SM FEW080

All Charts
General
Chart Name Download
AIRPORT DIAGRAM
TAKEOFF MINIMUMS
ALTERNATE MINIMUMS

Departures
Chart Name Download
BIMMR TWO (RNAV)
BWALL TWO (RNAV)

Arrivals
Chart Name Download
JUNNR THREE (RNAV)
MCHLN TWO (RNAV)
RCTOR TWO (RNAV)
WORXS TWO (RNAV)

Approaches
Chart Name Download
ILS OR LOC RWY 04
ILS OR LOC RWY 22
ILS RWY 04 (SA CAT I)
ILS RWY 04 (CAT II - III)
RNAV (GPS) RWY 04
RNAV (GPS) RWY 22


Inbound Traffic (Arrivals)

No inbound traffic.


Outbound Traffic (Departures)

No outbound traffic.